427  
ASUS44 KLIX 280813  
RWRLA  
LOUISIANA WEATHER ROUNDUP  
NATIONAL WEATHER SERVICE NEW ORLEANS LA  
300 AM CDT SUN MAY 28 2017  
 
NOTE: "FAIR" INDICATES FEW OR NO CLOUDS BELOW 12,000 FEET WITH NO  
SIGNIFICANT WEATHER AND/OR S TO VISIBILITY
.  
SKY/WX - SKY CONDITION AND SIGNIFICANT WEATHER.  
TMP - AIR TEMPERATURE. DP - DEWPOINT TEMPERATURE.  
RH - RELATIVE HUMIDITY. PRES - PRESSURE.  
HX - HEAT INDEX. WCI - WIND CHILL INDEX.  
 
* THESE STATIONS ARE NOT NWS OR FAA STATIONS AND ARE NOT UNDER  
NWS QUALITY CONTROL.  
 
LAZ040-048-061>063-065-066-069-280900-  
SOUTHEAST LOUISIANA  
 
CITY SKY/WX TMP DP RH WIND PRES REMARKS
 
N.O. INTL ARPT MOCLDY 77 75 93 S6 29.92F  
N.O. LAKEFRONT MOCLDY 79 76 90 S13 29.92F  
N.O. DOWNTOWN* N/A 81 75 82 S7 N/A  
RESERVE* CLOUDY 80 75 85 S6 29.92S  
SLIDELL CLOUDY 79 75 87 S6 29.92S  
BATON ROUGE CLOUDY 79 74 84 S14 29.90F  
BOOTHVILLE CLOUDY N/A N/A N/A S13 29.94S  
BELLE CHASSE MOCLDY N/A N/A N/A S13 29.91F  
BOGALUSA* CLOUDY 80 74 82 SW5 29.93S  
GALLIANO* CLOUDY 79 74 84 S13 29.92S  
NEW ROADS* CLOUDY 77 75 94 S5 29.90S  
GONZALES* CLOUDY 79 74 86 S5 29.91S  
HAMMOND* CLOUDY 79 72 78 SW5 29.92S  
HOUMA* NOT AVBL  
PORT FOURCHON* PTSUNNY 79 77 94 S12G20 29.92F  
 

 
 
LAZ041-044-053-054-280900-  
SOUTHWEST LOUISIANA  
 
CITY SKY/WX TMP DP RH WIND PRES REMARKS
 
LAKE CHARLES CLOUDY 81 77 88 S8 29.88R  
LAFAYETTE CLOUDY 79 77 94 S9 29.90R  
PATTERSON CLOUDY 79 76 90 S9 29.92F  
SALT POINT N/A 79 76 90 VRB6 29.89F  
NEW IBERIA CLOUDY 80 75 84 S10 29.90F  
CHENAULT AIRPK RAIN 80 77 90 S13G20 29.89R  
 

 
 
LAZ027-028-280900-  
CENTRAL LOUISIANA  
 
CITY SKY/WX TMP DP RH WIND PRES REMARKS
 
FORT POLK CLOUDY 77 75 94 S6 29.88R  
ALEXANDRIA INT CLOUDY 78 74 87 S8 29.86S  
ALEXANDRIA MOCLDY 77 75 93 SW5 29.88R  
 

 
 
LAZ001-002-280900-  
NORTHWEST LOUISIANA  
 
CITY SKY/WX TMP DP RH WIND PRES REMARKS
 
SHREVEPORT CLOUDY 77 72 84 S14G23 29.80F  
BARKSDALE AFB MOCLDY 77 72 83 S12G18 29.81F  
DTN SHREVEPORT MOCLDY 78 71 79 S12G22 29.80F  
 

 
 
LAZ014-016-280900-  
NORTHEAST LOUISIANA  
 
CITY SKY/WX TMP DP RH WIND PRES REMARKS
 
MONROE CLOUDY 76 72 87 S3 29.87R  
TALLULAH CLOUDY 76 73 91 S3 29.88R  
 

 
 
 
 
CLICK HERE TO GO TO PREVIOUS BULLETINS.

The Nexlab LA Page Main Text Page